Location: Krasnoyarskiy Pitomnik
(51.1333°N, 71.6167°E)
Time: 15:10:49
(UTC+00:00)

Transit 4A - Pass Details

Date: 16 April 2024
Orbit: 871 x 971 km, 66.8° (Epoch: 19 May)

Event Time Altitude Azimuth Distance (km) Brightness Sun altitude
Rises 14:41:58 0° 315° (NW) 3,484 12.4 -5.3°
Reaches altitude 10° 14:45:04 10° 331° (NNW) 2,536 11.1 -5.7°
Maximum altitude 14:49:34 22° 22° (NNE) 1,808 9.5 -6.4°
Drops below altitude 10° 14:54:03 10° 72° (ENE) 2,528 9.8 -7.0°
Enters shadow 14:56:07 - 84° (E) 3,143 10.2 -7.3°
